owner,sensor,date,latitude,longitude,air_pressure(mBar),qcFlag 
COMPS,ioos:station:USF.COMPS:C13:1,2014-12-11T16:05:00Z,26.0630,-83.0730,1021.02,1111122 
COMPS,ioos:station:USF.COMPS:C13:1,2014-12-11T16:35:00Z,26.0630,-83.0730,1020.87,1111122 
COMPS,ioos:station:USF.COMPS:C13:1,2014-12-11T17:05:00Z,26.0630,-83.0730,1020.43,1111122 
COMPS,ioos:station:USF.COMPS:C13:1,2014-12-11T17:35:00Z,26.0630,-83.0730,1019.74,1111122 
COMPS,ioos:station:USF.COMPS:C13:1,2014-12-11T18:05:00Z,26.0630,-83.0730,1019.28,1111122 
COMPS,ioos:station:USF.COMPS:C13:1,2014-12-11T18:35:00Z,26.0630,-83.0730,1018.87,1111122 
COMPS,ioos:station:USF.COMPS:C13:1,2014-12-11T19:05:00Z,26.0630,-83.0730,1018.5,1111122 
COMPS,ioos:station:USF.COMPS:C13:1,2014-12-11T19:35:00Z,26.0630,-83.0730,1018.47,1111122 
COMPS,ioos:station:USF.COMPS:C13:1,2014-12-11T20:05:00Z,26.0630,-83.0730,1018.39,1111122 
COMPS,ioos:station:USF.COMPS:C13:1,2014-12-11T20:35:00Z,26.0630,-83.0730,1018.6,1111122 
COMPS,ioos:station:USF.COMPS:C13:1,2014-12-11T21:05:00Z,26.0630,-83.0730,1018.68,1111122 
COMPS,ioos:station:USF.COMPS:C13:1,2014-12-11T21:35:00Z,26.0630,-83.0730,1018.65,1111122 
COMPS,ioos:station:USF.COMPS:C13:1,2014-12-11T22:05:00Z,26.0630,-83.0730,1018.65,1111122 
COMPS,ioos:station:USF.COMPS:C13:1,2014-12-11T22:35:00Z,26.0630,-83.0730,1018.91,1111122 
COMPS,ioos:station:USF.COMPS:C13:1,2014-12-11T23:05:00Z,26.0630,-83.0730,1018.98,1111122 
COMPS,ioos:station:USF.COMPS:C13:1,2014-12-11T23:35:00Z,26.0630,-83.0730,1019.27,1111122 
COMPS,ioos:station:USF.COMPS:C13:1,2014-12-12T00:05:00Z,26.0630,-83.0730,1019.35,1111122 
COMPS,ioos:station:USF.COMPS:C13:1,2014-12-12T00:35:00Z,26.0630,-83.0730,1019.45,1111122 
COMPS,ioos:station:USF.COMPS:C13:1,2014-12-12T01:05:00Z,26.0630,-83.0730,1019.82,1111122 
COMPS,ioos:station:USF.COMPS:C13:1,2014-12-12T01:35:00Z,26.0630,-83.0730,1019.78,1111122 
COMPS,ioos:station:USF.COMPS:C13:1,2014-12-12T02:05:00Z,26.0630,-83.0730,1019.83,1111122 
COMPS,ioos:station:USF.COMPS:C13:1,2014-12-12T02:35:00Z,26.0630,-83.0730,1019.75,1111122 
COMPS,ioos:station:USF.COMPS:C13:1,2014-12-12T03:05:00Z,26.0630,-83.0730,1019.98,1111122 
COMPS,ioos:station:USF.COMPS:C13:1,2014-12-12T03:35:00Z,26.0630,-83.0730,1020.2,1111122 
COMPS,ioos:station:USF.COMPS:C13:1,2014-12-12T04:05:00Z,26.0630,-83.0730,1020.12,1111122 
COMPS,ioos:station:USF.COMPS:C13:1,2014-12-12T04:35:00Z,26.0630,-83.0730,1020.34,1111122 
COMPS,ioos:station:USF.COMPS:C13:1,2014-12-12T05:05:00Z,26.0630,-83.0730,1020.2,1111122 
COMPS,ioos:station:USF.COMPS:C13:1,2014-12-12T05:35:00Z,26.0630,-83.0730,1020.27,1111122 
COMPS,ioos:station:USF.COMPS:C13:1,2014-12-12T06:05:00Z,26.0630,-83.0730,1019.95,1111122 
COMPS,ioos:station:USF.COMPS:C13:1,2014-12-12T06:35:00Z,26.0630,-83.0730,1020.25,1111122 
COMPS,ioos:station:USF.COMPS:C13:1,2014-12-12T07:05:00Z,26.0630,-83.0730,1020.04,1111122 
COMPS,ioos:station:USF.COMPS:C13:1,2014-12-12T07:35:00Z,26.0630,-83.0730,1020.14,1111122 
COMPS,ioos:station:USF.COMPS:C13:1,2014-12-12T08:05:00Z,26.0630,-83.0730,1020.25,1111122 
COMPS,ioos:station:USF.COMPS:C13:1,2014-12-12T08:35:00Z,26.0630,-83.0730,1020.22,1111122 
COMPS,ioos:station:USF.COMPS:C13:1,2014-12-12T09:05:00Z,26.0630,-83.0730,1020.33,1111122 
COMPS,ioos:station:USF.COMPS:C13:1,2014-12-12T09:35:00Z,26.0630,-83.0730,1020.29,1111122 
COMPS,ioos:station:USF.COMPS:C13:1,2014-12-12T10:05:00Z,26.0630,-83.0730,1020.35,1111122 
COMPS,ioos:station:USF.COMPS:C13:1,2014-12-12T10:35:00Z,26.0630,-83.0730,1020.28,1111122 
COMPS,ioos:station:USF.COMPS:C13:1,2014-12-12T11:05:00Z,26.0630,-83.0730,1020.72,1111122 
COMPS,ioos:station:USF.COMPS:C13:1,2014-12-12T11:35:00Z,26.0630,-83.0730,1020.83,1111122 
COMPS,ioos:station:USF.COMPS:C13:1,2014-12-12T12:05:00Z,26.0630,-83.0730,1021.15,1111122 
COMPS,ioos:station:USF.COMPS:C13:1,2014-12-12T12:35:00Z,26.0630,-83.0730,1021.61,1111122 
COMPS,ioos:station:USF.COMPS:C13:1,2014-12-12T13:05:00Z,26.0630,-83.0730,1021.97,1111122 
COMPS,ioos:station:USF.COMPS:C13:1,2014-12-12T13:35:00Z,26.0630,-83.0730,1022.25,1111122 
COMPS,ioos:station:USF.COMPS:C13:1,2014-12-12T14:05:00Z,26.0630,-83.0730,1022.82,1111122 
COMPS,ioos:station:USF.COMPS:C13:1,2014-12-12T14:35:00Z,26.0630,-83.0730,1023.07,1111122 
COMPS,ioos:station:USF.COMPS:C13:1,2014-12-12T15:05:00Z,26.0630,-83.0730,1023.62,1111122 
COMPS,ioos:station:USF.COMPS:C13:1,2014-12-12T15:35:00Z,26.0630,-83.0730,1023.55,1111122 
COMPS,ioos:station:USF.COMPS:C13:1,2014-12-12T16:05:00Z,26.0630,-83.0730,1023.24,1111122 
COMPS,ioos:station:USF.COMPS:C13:1,2014-12-12T16:35:00Z,26.0630,-83.0730,1023.03,1111122 
COMPS,ioos:station:USF.COMPS:C13:1,2014-12-12T17:05:00Z,26.0630,-83.0730,1022.55,1111122 
COMPS,ioos:station:USF.COMPS:C13:1,2014-12-12T17:35:00Z,26.0630,-83.0730,1022.1,1111122 
COMPS,ioos:station:USF.COMPS:C13:1,2014-12-12T18:05:00Z,26.0630,-83.0730,1021.38,1111122 
COMPS,ioos:station:USF.COMPS:C13:1,2014-12-12T18:35:00Z,26.0630,-83.0730,1020.87,1111122 
COMPS,ioos:station:USF.COMPS:C13:1,2014-12-12T19:05:00Z,26.0630,-83.0730,1020.71,1111122 
COMPS,ioos:station:USF.COMPS:C13:1,2014-12-12T19:35:00Z,26.0630,-83.0730,1020.65,1111122 
COMPS,ioos:station:USF.COMPS:C13:1,2014-12-12T20:05:00Z,26.0630,-83.0730,1020.67,1111122 
COMPS,ioos:station:USF.COMPS:C13:1,2014-12-12T20:35:00Z,26.0630,-83.0730,1020.23,1111122 
COMPS,ioos:station:USF.COMPS:C13:1,2014-12-12T21:05:00Z,26.0630,-83.0730,1020.29,1111122 
COMPS,ioos:station:USF.COMPS:C13:1,2014-12-12T21:35:00Z,26.0630,-83.0730,1020.14,1111122 
COMPS,ioos:station:USF.COMPS:C13:1,2014-12-12T22:05:00Z,26.0630,-83.0730,1020.11,1111122 
COMPS,ioos:station:USF.COMPS:C13:1,2014-12-12T22:35:00Z,26.0630,-83.0730,1020.3,1111122 
COMPS,ioos:station:USF.COMPS:C13:1,2014-12-12T23:05:00Z,26.0630,-83.0730,1020.28,1111122 
COMPS,ioos:station:USF.COMPS:C13:1,2014-12-12T23:35:00Z,26.0630,-83.0730,1020.31,1111122 
COMPS,ioos:station:USF.COMPS:C13:1,2014-12-13T00:05:00Z,26.0630,-83.0730,1020.62,1111122 
COMPS,ioos:station:USF.COMPS:C13:1,2014-12-13T00:35:00Z,26.0630,-83.0730,1020.69,1111122 
COMPS,ioos:station:USF.COMPS:C13:1,2014-12-13T01:05:00Z,26.0630,-83.0730,1020.69,1111122 
COMPS,ioos:station:USF.COMPS:C13:1,2014-12-13T01:35:00Z,26.0630,-83.0730,1020.85,1111122 
COMPS,ioos:station:USF.COMPS:C13:1,2014-12-13T02:05:00Z,26.0630,-83.0730,1021.04,1111122 
COMPS,ioos:station:USF.COMPS:C13:1,2014-12-13T02:35:00Z,26.0630,-83.0730,1020.96,1111122 
COMPS,ioos:station:USF.COMPS:C13:1,2014-12-13T03:05:00Z,26.0630,-83.0730,1021.12,1111122 
COMPS,ioos:station:USF.COMPS:C13:1,2014-12-13T03:35:00Z,26.0630,-83.0730,1021.04,1111122 
COMPS,ioos:station:USF.COMPS:C13:1,2014-12-13T04:05:00Z,26.0630,-83.0730,1020.86,1111122 
COMPS,ioos:station:USF.COMPS:C13:1,2014-12-13T04:35:00Z,26.0630,-83.0730,1020.82,1111122 
COMPS,ioos:station:USF.COMPS:C13:1,2014-12-13T05:05:00Z,26.0630,-83.0730,1020.41,1111122 
COMPS,ioos:station:USF.COMPS:C13:1,2014-12-13T05:35:00Z,26.0630,-83.0730,1020.24,1111122 
COMPS,ioos:station:USF.COMPS:C13:1,2014-12-13T06:05:00Z,26.0630,-83.0730,1020.3,1111122 
COMPS,ioos:station:USF.COMPS:C13:1,2014-12-13T06:35:00Z,26.0630,-83.0730,1020.27,1111122 
COMPS,ioos:station:USF.COMPS:C13:1,2014-12-13T07:05:00Z,26.0630,-83.0730,1020.14,1111122 
COMPS,ioos:station:USF.COMPS:C13:1,2014-12-13T07:35:00Z,26.0630,-83.0730,1019.92,1111122 
COMPS,ioos:station:USF.COMPS:C13:1,2014-12-13T08:05:00Z,26.0630,-83.0730,1019.8,1111122 
COMPS,ioos:station:USF.COMPS:C13:1,2014-12-13T08:35:00Z,26.0630,-83.0730,1019.74,1111122 
COMPS,ioos:station:USF.COMPS:C13:1,2014-12-13T09:05:00Z,26.0630,-83.0730,1019.53,1111122 
COMPS,ioos:station:USF.COMPS:C13:1,2014-12-13T09:35:00Z,26.0630,-83.0730,1019.38,1111122 
COMPS,ioos:station:USF.COMPS:C13:1,2014-12-13T10:05:00Z,26.0630,-83.0730,1019.19,1111122 
COMPS,ioos:station:USF.COMPS:C13:1,2014-12-13T10:35:00Z,26.0630,-83.0730,1019.27,1111122 
COMPS,ioos:station:USF.COMPS:C13:1,2014-12-13T11:05:00Z,26.0630,-83.0730,1019.42,1111122 
COMPS,ioos:station:USF.COMPS:C13:1,2014-12-13T11:35:00Z,26.0630,-83.0730,1019.66,1111122 
COMPS,ioos:station:USF.COMPS:C13:1,2014-12-13T12:05:00Z,26.0630,-83.0730,1019.83,1111122 
COMPS,ioos:station:USF.COMPS:C13:1,2014-12-13T12:35:00Z,26.0630,-83.0730,1020.15,1111122 
COMPS,ioos:station:USF.COMPS:C13:1,2014-12-13T13:05:00Z,26.0630,-83.0730,1020.23,1111122 
COMPS,ioos:station:USF.COMPS:C13:1,2014-12-13T13:35:00Z,26.0630,-83.0730,1020.29,1111122 
COMPS,ioos:station:USF.COMPS:C13:1,2014-12-13T14:05:00Z,26.0630,-83.0730,1020.6,1111122 
COMPS,ioos:station:USF.COMPS:C13:1,2014-12-13T14:35:00Z,26.0630,-83.0730,1020.82,1111122 
COMPS,ioos:station:USF.COMPS:C13:1,2014-12-13T15:05:00Z,26.0630,-83.0730,1020.91,1111122 
COMPS,ioos:station:USF.COMPS:C13:1,2014-12-13T15:35:00Z,26.0630,-83.0730,1020.81,1111122 
COMPS,ioos:station:USF.COMPS:C13:1,2014-12-13T16:05:00Z,26.0630,-83.0730,1020.68,1111122 
COMPS,ioos:station:USF.COMPS:C13:1,2014-12-13T16:35:00Z,26.0630,-83.0730,1020.41,1111122 
COMPS,ioos:station:USF.COMPS:C13:1,2014-12-13T17:05:00Z,26.0630,-83.0730,1019.94,1111122 
COMPS,ioos:station:USF.COMPS:C13:1,2014-12-13T17:35:00Z,26.0630,-83.0730,1019.37,1111122 
COMPS,ioos:station:USF.COMPS:C13:1,2014-12-13T18:05:00Z,26.0630,-83.0730,1018.91,1111122 
COMPS,ioos:station:USF.COMPS:C13:1,2014-12-13T18:35:00Z,26.0630,-83.0730,1018.33,1111122 
COMPS,ioos:station:USF.COMPS:C13:1,2014-12-13T19:05:00Z,26.0630,-83.0730,1018.05,1111122 
COMPS,ioos:station:USF.COMPS:C13:1,2014-12-13T19:35:00Z,26.0630,-83.0730,1018.0,1111122 
COMPS,ioos:station:USF.COMPS:C13:1,2014-12-13T20:05:00Z,26.0630,-83.0730,1017.86,1111122 
COMPS,ioos:station:USF.COMPS:C13:1,2014-12-13T20:35:00Z,26.0630,-83.0730,1017.76,1111122 
COMPS,ioos:station:USF.COMPS:C13:1,2014-12-13T21:05:00Z,26.0630,-83.0730,1017.77,1111122 
COMPS,ioos:station:USF.COMPS:C13:1,2014-12-13T21:35:00Z,26.0630,-83.0730,1017.75,1111122 
COMPS,ioos:station:USF.COMPS:C13:1,2014-12-13T22:05:00Z,26.0630,-83.0730,1017.57,1111122 
COMPS,ioos:station:USF.COMPS:C13:1,2014-12-13T22:35:00Z,26.0630,-83.0730,1017.6,1111122 
COMPS,ioos:station:USF.COMPS:C13:1,2014-12-13T23:05:00Z,26.0630,-83.0730,1017.68,1111122 
COMPS,ioos:station:USF.COMPS:C13:1,2014-12-13T23:35:00Z,26.0630,-83.0730,1017.71,1111122 
COMPS,ioos:station:USF.COMPS:C13:1,2014-12-14T00:05:00Z,26.0630,-83.0730,1017.87,1111122 
COMPS,ioos:station:USF.COMPS:C13:1,2014-12-14T00:35:00Z,26.0630,-83.0730,1017.89,1111122 
COMPS,ioos:station:USF.COMPS:C13:1,2014-12-14T01:05:00Z,26.0630,-83.0730,1018.03,1111122 
COMPS,ioos:station:USF.COMPS:C13:1,2014-12-14T01:35:00Z,26.0630,-83.0730,1018.04,1111122 
COMPS,ioos:station:USF.COMPS:C13:1,2014-12-14T02:05:00Z,26.0630,-83.0730,1018.08,1111122 
COMPS,ioos:station:USF.COMPS:C13:1,2014-12-14T02:35:00Z,26.0630,-83.0730,1018.21,1111122 
COMPS,ioos:station:USF.COMPS:C13:1,2014-12-14T03:05:00Z,26.0630,-83.0730,1018.1,1111122 
COMPS,ioos:station:USF.COMPS:C13:1,2014-12-14T03:35:00Z,26.0630,-83.0730,1018.14,1111122 
COMPS,ioos:station:USF.COMPS:C13:1,2014-12-14T04:05:00Z,26.0630,-83.0730,1017.96,1111122 
COMPS,ioos:station:USF.COMPS:C13:1,2014-12-14T04:35:00Z,26.0630,-83.0730,1017.77,1111122 
COMPS,ioos:station:USF.COMPS:C13:1,2014-12-14T05:05:00Z,26.0630,-83.0730,1017.63,1111122 
COMPS,ioos:station:USF.COMPS:C13:1,2014-12-14T05:35:00Z,26.0630,-83.0730,1017.41,1111122 
COMPS,ioos:station:USF.COMPS:C13:1,2014-12-14T06:05:00Z,26.0630,-83.0730,1017.16,1111122 
COMPS,ioos:station:USF.COMPS:C13:1,2014-12-14T06:35:00Z,26.0630,-83.0730,1017.1,1111122 
COMPS,ioos:station:USF.COMPS:C13:1,2014-12-14T07:05:00Z,26.0630,-83.0730,1017.15,1111122 
COMPS,ioos:station:USF.COMPS:C13:1,2014-12-14T07:35:00Z,26.0630,-83.0730,1016.88,1111122 
COMPS,ioos:station:USF.COMPS:C13:1,2014-12-14T08:05:00Z,26.0630,-83.0730,1016.77,1111122 
COMPS,ioos:station:USF.COMPS:C13:1,2014-12-14T08:35:00Z,26.0630,-83.0730,1016.6,1111122 
COMPS,ioos:station:USF.COMPS:C13:1,2014-12-14T09:05:00Z,26.0630,-83.0730,1016.58,1111122 
COMPS,ioos:station:USF.COMPS:C13:1,2014-12-14T09:35:00Z,26.0630,-83.0730,1016.59,1111122 
COMPS,ioos:station:USF.COMPS:C13:1,2014-12-14T10:05:00Z,26.0630,-83.0730,1016.69,1111122 
COMPS,ioos:station:USF.COMPS:C13:1,2014-12-14T10:35:00Z,26.0630,-83.0730,1016.76,1111122 
COMPS,ioos:station:USF.COMPS:C13:1,2014-12-14T11:05:00Z,26.0630,-83.0730,1017.1,1111122 
COMPS,ioos:station:USF.COMPS:C13:1,2014-12-14T11:35:00Z,26.0630,-83.0730,1017.11,1111122 
COMPS,ioos:station:USF.COMPS:C13:1,2014-12-14T12:05:00Z,26.0630,-83.0730,1017.36,1111122 
COMPS,ioos:station:USF.COMPS:C13:1,2014-12-14T12:35:00Z,26.0630,-83.0730,1017.64,1111122 
COMPS,ioos:station:USF.COMPS:C13:1,2014-12-14T13:05:00Z,26.0630,-83.0730,1017.91,1111122 
COMPS,ioos:station:USF.COMPS:C13:1,2014-12-14T13:35:00Z,26.0630,-83.0730,1018.11,1111122 
COMPS,ioos:station:USF.COMPS:C13:1,2014-12-14T14:05:00Z,26.0630,-83.0730,1018.3,1111122 
COMPS,ioos:station:USF.COMPS:C13:1,2014-12-14T14:35:00Z,26.0630,-83.0730,1018.71,1111122 
COMPS,ioos:station:USF.COMPS:C13:1,2014-12-14T15:05:00Z,26.0630,-83.0730,1018.9,1111122 
COMPS,ioos:station:USF.COMPS:C13:1,2014-12-14T15:35:00Z,26.0630,-83.0730,1018.9,1111122 
COMPS,ioos:station:USF.COMPS:C13:1,2014-12-14T16:05:00Z,26.0630,-83.0730,1018.58,1111122 
COMPS,ioos:station:USF.COMPS:C13:1,2014-12-14T16:35:00Z,26.0630,-83.0730,1018.23,1111122 
COMPS,ioos:station:USF.COMPS:C13:1,2014-12-14T17:05:00Z,26.0630,-83.0730,1018.06,1111122 
COMPS,ioos:station:USF.COMPS:C13:1,2014-12-14T17:35:00Z,26.0630,-83.0730,1017.53,1111122 
COMPS,ioos:station:USF.COMPS:C13:1,2014-12-14T18:05:00Z,26.0630,-83.0730,1017.25,1111122 
COMPS,ioos:station:USF.COMPS:C13:1,2014-12-14T18:35:00Z,26.0630,-83.0730,1016.89,1111122 
COMPS,ioos:station:USF.COMPS:C13:1,2014-12-14T19:05:00Z,26.0630,-83.0730,1016.37,1111122 
COMPS,ioos:station:USF.COMPS:C13:1,2014-12-14T19:35:00Z,26.0630,-83.0730,1016.38,1111122 
COMPS,ioos:station:USF.COMPS:C13:1,2014-12-14T20:05:00Z,26.0630,-83.0730,1016.34,1111122 
COMPS,ioos:station:USF.COMPS:C13:1,2014-12-14T20:35:00Z,26.0630,-83.0730,1016.33,1111122 
COMPS,ioos:station:USF.COMPS:C13:1,2014-12-14T21:05:00Z,26.0630,-83.0730,1016.1,1111122 
COMPS,ioos:station:USF.COMPS:C13:1,2014-12-14T21:35:00Z,26.0630,-83.0730,1016.21,1111122 
COMPS,ioos:station:USF.COMPS:C13:1,2014-12-14T22:05:00Z,26.0630,-83.0730,1016.31,1111122 
COMPS,ioos:station:USF.COMPS:C13:1,2014-12-14T22:35:00Z,26.0630,-83.0730,1016.29,1111122 
COMPS,ioos:station:USF.COMPS:C13:1,2014-12-14T23:05:00Z,26.0630,-83.0730,1016.16,1111122 
COMPS,ioos:station:USF.COMPS:C13:1,2014-12-14T23:35:00Z,26.0630,-83.0730,1016.29,1111122 
COMPS,ioos:station:USF.COMPS:C13:1,2014-12-15T00:05:00Z,26.0630,-83.0730,1016.28,1111122 
COMPS,ioos:station:USF.COMPS:C13:1,2014-12-15T00:35:00Z,26.0630,-83.0730,1016.56,1111122 
COMPS,ioos:station:USF.COMPS:C13:1,2014-12-15T01:05:00Z,26.0630,-83.0730,1016.76,1111122 
COMPS,ioos:station:USF.COMPS:C13:1,2014-12-15T01:35:00Z,26.0630,-83.0730,1016.84,1111122 
COMPS,ioos:station:USF.COMPS:C13:1,2014-12-15T02:05:00Z,26.0630,-83.0730,1016.93,1111122 
COMPS,ioos:station:USF.COMPS:C13:1,2014-12-15T02:35:00Z,26.0630,-83.0730,1016.93,1111122 
COMPS,ioos:station:USF.COMPS:C13:1,2014-12-15T03:05:00Z,26.0630,-83.0730,1016.91,1111122 
COMPS,ioos:station:USF.COMPS:C13:1,2014-12-15T03:35:00Z,26.0630,-83.0730,1016.8,1111122 
COMPS,ioos:station:USF.COMPS:C13:1,2014-12-15T04:05:00Z,26.0630,-83.0730,1016.76,1111122 
COMPS,ioos:station:USF.COMPS:C13:1,2014-12-15T04:35:00Z,26.0630,-83.0730,1016.76,1111122 
COMPS,ioos:station:USF.COMPS:C13:1,2014-12-15T05:05:00Z,26.0630,-83.0730,1016.62,1111122 
COMPS,ioos:station:USF.COMPS:C13:1,2014-12-15T05:35:00Z,26.0630,-83.0730,1016.62,1111122 
COMPS,ioos:station:USF.COMPS:C13:1,2014-12-15T06:05:00Z,26.0630,-83.0730,1016.3,1111122 
COMPS,ioos:station:USF.COMPS:C13:1,2014-12-15T06:35:00Z,26.0630,-83.0730,1016.24,1111122 
COMPS,ioos:station:USF.COMPS:C13:1,2014-12-15T07:05:00Z,26.0630,-83.0730,1016.26,1111122 
COMPS,ioos:station:USF.COMPS:C13:1,2014-12-15T07:35:00Z,26.0630,-83.0730,1016.25,1111122 
COMPS,ioos:station:USF.COMPS:C13:1,2014-12-15T08:05:00Z,26.0630,-83.0730,1016.09,1111122 
COMPS,ioos:station:USF.COMPS:C13:1,2014-12-15T08:35:00Z,26.0630,-83.0730,1016.15,1111122 
COMPS,ioos:station:USF.COMPS:C13:1,2014-12-15T09:05:00Z,26.0630,-83.0730,1016.28,1111122 
COMPS,ioos:station:USF.COMPS:C13:1,2014-12-15T09:35:00Z,26.0630,-83.0730,1016.28,1111122 
COMPS,ioos:station:USF.COMPS:C13:1,2014-12-15T10:05:00Z,26.0630,-83.0730,1016.23,1111122 
COMPS,ioos:station:USF.COMPS:C13:1,2014-12-15T10:35:00Z,26.0630,-83.0730,1016.2,1111122 
COMPS,ioos:station:USF.COMPS:C13:1,2014-12-15T11:05:00Z,26.0630,-83.0730,1016.5,1111122 
COMPS,ioos:station:USF.COMPS:C13:1,2014-12-15T11:35:00Z,26.0630,-83.0730,1016.78,1111122 
COMPS,ioos:station:USF.COMPS:C13:1,2014-12-15T12:05:00Z,26.0630,-83.0730,1017.15,1111122 
COMPS,ioos:station:USF.COMPS:C13:1,2014-12-15T12:35:00Z,26.0630,-83.0730,1017.4,1111122 
COMPS,ioos:station:USF.COMPS:C13:1,2014-12-15T13:05:00Z,26.0630,-83.0730,1017.83,1111122 
COMPS,ioos:station:USF.COMPS:C13:1,2014-12-15T13:35:00Z,26.0630,-83.0730,1018.11,1111122 
COMPS,ioos:station:USF.COMPS:C13:1,2014-12-15T14:05:00Z,26.0630,-83.0730,1018.59,1111122 
COMPS,ioos:station:USF.COMPS:C13:1,2014-12-15T14:35:00Z,26.0630,-83.0730,1018.92,1111122 
COMPS,ioos:station:USF.COMPS:C13:1,2014-12-15T15:05:00Z,26.0630,-83.0730,1019.27,1111122 
COMPS,ioos:station:USF.COMPS:C13:1,2014-12-15T15:35:00Z,26.0630,-83.0730,1019.43,1111122 
COMPS,ioos:station:USF.COMPS:C13:1,2014-12-15T16:05:00Z,26.0630,-83.0730,1018.89,1111122 
COMPS,ioos:station:USF.COMPS:C13:1,2014-12-15T16:35:00Z,26.0630,-83.0730,1018.53,1111122 
COMPS,ioos:station:USF.COMPS:C13:1,2014-12-15T17:05:00Z,26.0630,-83.0730,1018.14,1111122 
COMPS,ioos:station:USF.COMPS:C13:1,2014-12-15T17:35:00Z,26.0630,-83.0730,1017.75,1111122 
COMPS,ioos:station:USF.COMPS:C13:1,2014-12-15T18:05:00Z,26.0630,-83.0730,1017.19,1111122 
COMPS,ioos:station:USF.COMPS:C13:1,2014-12-15T18:35:00Z,26.0630,-83.0730,1016.96,1111122 
COMPS,ioos:station:USF.COMPS:C13:1,2014-12-15T19:05:00Z,26.0630,-83.0730,1016.78,1111122 
COMPS,ioos:station:USF.COMPS:C13:1,2014-12-15T19:35:00Z,26.0630,-83.0730,1016.8,1111122 
COMPS,ioos:station:USF.COMPS:C13:1,2014-12-15T20:05:00Z,26.0630,-83.0730,1016.72,1111122 
COMPS,ioos:station:USF.COMPS:C13:1,2014-12-15T20:35:00Z,26.0630,-83.0730,1016.8,1111122 
COMPS,ioos:station:USF.COMPS:C13:1,2014-12-15T21:05:00Z,26.0630,-83.0730,1016.81,1111122 
COMPS,ioos:station:USF.COMPS:C13:1,2014-12-15T21:35:00Z,26.0630,-83.0730,1016.85,1111122 
COMPS,ioos:station:USF.COMPS:C13:1,2014-12-15T22:05:00Z,26.0630,-83.0730,1016.85,1111122 
COMPS,ioos:station:USF.COMPS:C13:1,2014-12-15T22:35:00Z,26.0630,-83.0730,1017.0,1111122 
COMPS,ioos:station:USF.COMPS:C13:1,2014-12-15T23:05:00Z,26.0630,-83.0730,1017.49,1111122 
COMPS,ioos:station:USF.COMPS:C13:1,2014-12-15T23:35:00Z,26.0630,-83.0730,1017.75,1111122 
COMPS,ioos:station:USF.COMPS:C13:1,2014-12-16T00:05:00Z,26.0630,-83.0730,1018.11,1111122 
COMPS,ioos:station:USF.COMPS:C13:1,2014-12-16T00:35:00Z,26.0630,-83.0730,1018.18,1111122 
COMPS,ioos:station:USF.COMPS:C13:1,2014-12-16T01:05:00Z,26.0630,-83.0730,1018.35,1111122 
COMPS,ioos:station:USF.COMPS:C13:1,2014-12-16T01:35:00Z,26.0630,-83.0730,1018.59,1111122 
COMPS,ioos:station:USF.COMPS:C13:1,2014-12-16T02:05:00Z,26.0630,-83.0730,1018.74,1111122 
COMPS,ioos:station:USF.COMPS:C13:1,2014-12-16T02:35:00Z,26.0630,-83.0730,1018.94,1111122 
COMPS,ioos:station:USF.COMPS:C13:1,2014-12-16T03:05:00Z,26.0630,-83.0730,1019.2,1111122 
COMPS,ioos:station:USF.COMPS:C13:1,2014-12-16T03:35:00Z,26.0630,-83.0730,1019.2,1111122 
COMPS,ioos:station:USF.COMPS:C13:1,2014-12-16T04:05:00Z,26.0630,-83.0730,1019.22,1111122 
COMPS,ioos:station:USF.COMPS:C13:1,2014-12-16T04:35:00Z,26.0630,-83.0730,1018.95,1111122 
COMPS,ioos:station:USF.COMPS:C13:1,2014-12-16T05:05:00Z,26.0630,-83.0730,1018.63,1111122 
COMPS,ioos:station:USF.COMPS:C13:1,2014-12-16T05:35:00Z,26.0630,-83.0730,1018.62,1111122 
COMPS,ioos:station:USF.COMPS:C13:1,2014-12-16T06:05:00Z,26.0630,-83.0730,1018.59,1111122 
COMPS,ioos:station:USF.COMPS:C13:1,2014-12-16T06:35:00Z,26.0630,-83.0730,1018.59,1111122 
COMPS,ioos:station:USF.COMPS:C13:1,2014-12-16T07:05:00Z,26.0630,-83.0730,1018.7,1111122 
COMPS,ioos:station:USF.COMPS:C13:1,2014-12-16T07:35:00Z,26.0630,-83.0730,1018.59,1111122 
COMPS,ioos:station:USF.COMPS:C13:1,2014-12-16T08:05:00Z,26.0630,-83.0730,1018.62,1111122 
COMPS,ioos:station:USF.COMPS:C13:1,2014-12-16T08:35:00Z,26.0630,-83.0730,1018.72,1111122 
COMPS,ioos:station:USF.COMPS:C13:1,2014-12-16T09:05:00Z,26.0630,-83.0730,1018.87,1111122 
COMPS,ioos:station:USF.COMPS:C13:1,2014-12-16T09:35:00Z,26.0630,-83.0730,1018.98,1111122 
COMPS,ioos:station:USF.COMPS:C13:1,2014-12-16T10:05:00Z,26.0630,-83.0730,1018.99,1111122 
COMPS,ioos:station:USF.COMPS:C13:1,2014-12-16T10:35:00Z,26.0630,-83.0730,1019.02,1111122 
COMPS,ioos:station:USF.COMPS:C13:1,2014-12-16T11:05:00Z,26.0630,-83.0730,1019.47,1111122 
COMPS,ioos:station:USF.COMPS:C13:1,2014-12-16T11:35:00Z,26.0630,-83.0730,1019.76,1111122 
COMPS,ioos:station:USF.COMPS:C13:1,2014-12-16T12:05:00Z,26.0630,-83.0730,1019.97,1111122 
COMPS,ioos:station:USF.COMPS:C13:1,2014-12-16T12:35:00Z,26.0630,-83.0730,1020.22,1111122 
COMPS,ioos:station:USF.COMPS:C13:1,2014-12-16T13:05:00Z,26.0630,-83.0730,1020.36,1111122 
COMPS,ioos:station:USF.COMPS:C13:1,2014-12-16T13:35:00Z,26.0630,-83.0730,1020.82,1111122 
COMPS,ioos:station:USF.COMPS:C13:1,2014-12-16T14:05:00Z,26.0630,-83.0730,1021.21,1111122 
COMPS,ioos:station:USF.COMPS:C13:1,2014-12-16T14:35:00Z,26.0630,-83.0730,1021.4,1111122 
COMPS,ioos:station:USF.COMPS:C13:1,2014-12-16T15:05:00Z,26.0630,-83.0730,1021.56,1111122 
COMPS,ioos:station:USF.COMPS:C13:1,2014-12-16T15:35:00Z,26.0630,-83.0730,1021.7,1111122 
COMPS,ioos:station:USF.COMPS:C13:1,2014-12-16T16:05:00Z,26.0630,-83.0730,1021.64,1111122 
COMPS,ioos:station:USF.COMPS:C13:1,2014-12-16T16:35:00Z,26.0630,-83.0730,1021.38,1111122 
COMPS,ioos:station:USF.COMPS:C13:1,2014-12-16T17:05:00Z,26.0630,-83.0730,1021.12,1111122 
COMPS,ioos:station:USF.COMPS:C13:1,2014-12-16T17:35:00Z,26.0630,-83.0730,1020.6,1111122 
COMPS,ioos:station:USF.COMPS:C13:1,2014-12-16T18:05:00Z,26.0630,-83.0730,1020.27,1111122 
COMPS,ioos:station:USF.COMPS:C13:1,2014-12-16T18:35:00Z,26.0630,-83.0730,1019.79,1111122 
COMPS,ioos:station:USF.COMPS:C13:1,2014-12-16T19:05:00Z,26.0630,-83.0730,1019.63,1111122 
COMPS,ioos:station:USF.COMPS:C13:1,2014-12-16T19:35:00Z,26.0630,-83.0730,1019.53,1111122 
COMPS,ioos:station:USF.COMPS:C13:1,2014-12-16T20:05:00Z,26.0630,-83.0730,1019.42,1111122 
COMPS,ioos:station:USF.COMPS:C13:1,2014-12-16T20:35:00Z,26.0630,-83.0730,1019.36,1111122 
COMPS,ioos:station:USF.COMPS:C13:1,2014-12-16T21:05:00Z,26.0630,-83.0730,1019.43,1111122 
COMPS,ioos:station:USF.COMPS:C13:1,2014-12-16T21:35:00Z,26.0630,-83.0730,1019.52,1111122 
COMPS,ioos:station:USF.COMPS:C13:1,2014-12-16T22:05:00Z,26.0630,-83.0730,1019.74,1111122 
COMPS,ioos:station:USF.COMPS:C13:1,2014-12-16T22:35:00Z,26.0630,-83.0730,1019.8,1111122 
COMPS,ioos:station:USF.COMPS:C13:1,2014-12-16T23:05:00Z,26.0630,-83.0730,1019.9,1111122 
COMPS,ioos:station:USF.COMPS:C13:1,2014-12-16T23:35:00Z,26.0630,-83.0730,1020.08,1111122 
COMPS,ioos:station:USF.COMPS:C13:1,2014-12-17T00:05:00Z,26.0630,-83.0730,1020.32,1111122 
COMPS,ioos:station:USF.COMPS:C13:1,2014-12-17T00:35:00Z,26.0630,-83.0730,1020.61,1111122 
COMPS,ioos:station:USF.COMPS:C13:1,2014-12-17T01:05:00Z,26.0630,-83.0730,1020.82,1111122 
COMPS,ioos:station:USF.COMPS:C13:1,2014-12-17T01:35:00Z,26.0630,-83.0730,1020.89,1111122 
COMPS,ioos:station:USF.COMPS:C13:1,2014-12-17T02:05:00Z,26.0630,-83.0730,1021.15,1111122 
COMPS,ioos:station:USF.COMPS:C13:1,2014-12-17T02:35:00Z,26.0630,-83.0730,1021.17,1111122 
COMPS,ioos:station:USF.COMPS:C13:1,2014-12-17T03:05:00Z,26.0630,-83.0730,1021.29,1111122 
COMPS,ioos:station:USF.COMPS:C13:1,2014-12-17T03:35:00Z,26.0630,-83.0730,1021.36,1111122 
COMPS,ioos:station:USF.COMPS:C13:1,2014-12-17T04:05:00Z,26.0630,-83.0730,1021.45,1111122 
COMPS,ioos:station:USF.COMPS:C13:1,2014-12-17T04:35:00Z,26.0630,-83.0730,1021.31,1111122 